Miscellaneous Local Product
Issued by NWS North Platte, NE

Home | Current Version | Previous Version | Text Only | Print | Product List | Glossary On
Versions: 1 2 3 4 5 6 7 8 9 10 11 12 13 14 15 16 17 18 19 20 21 22 23 24 25 26 27 28 29 30 31 32 33 34 35 36 37 38 39 40 41 42 43 44 45 46 47 48 49 50
819
AXUS43 KLBF 130710
MISLBF


WESTERN AND NORTH CENTRAL NEBRASKA HOURLY WEATHER ROUNDUP
NATIONAL WEATHER SERVICE NORTH PLATTE NE
100 AM CST SAT FEB 13 2016

NOTE: "FAIR" INDICATES FEW OR NO CLOUDS BELOW 12,000 FEET WITH NO
SIGNIFICANT WEATHER AND/OR OBSTRUCTIONS TO VISIBILITY.

NOTE: STATIONS NOT REPORTING VARIABLES SUCH AS SKY/WEATHER OR
PRESSURE ARE PROVIDED BY THE NEBRASKA DEPARTMENT OF
ROADS...RAWS...AND APRS NETWORKS...AND ARE NOT UNDER
NATIONAL WEATHER SERVICE QUALITY CONTROL.

...OBSERVATIONS IN AND NEAR THE EASTERN PANHANDLE OF NEBRASKA...

CITY           SKY/WX    TMP DP  RH WIND       PRES   REMARKS
PINE RIDGE     CLOUDY    33  28  81 S16       30.23F WCI  23
CHADRON        CLOUDY    34  29  82 S12       30.20F WCI  25
ALLIANCE       CLOUDY    30  29  96 S16       30.23F FOG     WCI  19
SIDNEY         CLOUDY    29  29 100 S20       30.25F FOG     WCI  16
CRESCENT LAKE    N/A     30  30 100 S12G20      N/A  WCI  20
$$

...OBSERVATIONS IN NORTH CENTRAL NEBRASKA...

CITY           SKY/WX    TMP DP  RH WIND       PRES   REMARKS
VALENTINE      CLOUDY    22  15  75 SE15      30.37F WCI   9
THEDFORD       CLOUDY    26  21  84 S12       30.38F WCI  15
AINSWORTH      CLOUDY    20  14  78 SE12      30.41F WCI   8
O`NEILL        CLOUDY    15   8  73 SE6       30.51S WCI   6
ORD            CLOUDY    17  12  80 SE9       30.49F WCI   6
BROKEN BOW     CLOUDY    20  16  84 SE10      30.44F WCI   9
VALENTINE NWR    N/A     21  16  81 SE12        N/A  WCI   9
BUTTE            N/A     11   7  82 E12         N/A  WCI  -3
HALSEY           N/A     23  19  83 SE8         N/A  WCI  14
CHAMBERS         N/A     15   6  67 SE5         N/A  WCI   8
EWING            N/A     12   7  81 E8          N/A  WCI   0
$$

...OBSERVATIONS IN SOUTHWEST NEBRASKA AND FAR NORTHEAST COLORADO...

CITY           SKY/WX    TMP DP  RH WIND       PRES   REMARKS
WRAY           CLOUDY   N/A N/A N/A SE14      30.33F FOG
HOLYOKE        CLOUDY    34  32  93 S17       30.30F FOG     WCI  23
IMPERIAL       CLOUDY    29  27  92 S15       30.35F WCI  18
OGALLALA       CLOUDY    29  28  93 SE14      30.33F FOG     WCI  19
NORTH PLATTE   CLOUDY    24  20  84 SE10      30.39F WCI  14
MCCOOK         FOG       26  25  96 SE15      30.42F VSB 1/4 WCI  14
LEXINGTON      CLOUDY    22  18  82 SE9       30.46F WCI  12
STAPLETON        N/A     22  19  87 CALM        N/A
$$

...OBSERVATIONS IN CENTRAL LINCOLN COUNTY AREA...

CITY           SKY/WX    TMP DP  RH WIND       PRES   REMARKS
N.P. AIRPORT   CLOUDY    24  20  84 SE10      30.39F WCI  14
N.P. DOWNTOWN    N/A     24  22  91 MISG        N/A
N.P. SOUTHEAST   N/A     23  21  91 SE7         N/A  WCI  15
N.P. HILLCREST   N/A     24  22  93 SE12        N/A  WCI  13
$$

...SOME OBSERVATIONS FROM AROUND THE REGION...

CITY           SKY/WX    TMP DP  RH WIND       PRES   REMARKS
DENVER         FOG       27  26  96 CALM      30.19F VSB 1/4
LARAMIE        CLOUDY    42  20  41 SW18      30.20S
CHEYENNE       CLOUDY    30  29  96 S7        30.15F FOG     WCI  23
SCOTTSBLUFF    CLOUDY    33  30  88 SE10      30.22F WCI  25
RAPID CITY     CLOUDY    25  22  88 SE15      30.19F WCI  13
BISMARCK       CLOUDY     6  -4  63 SE13      30.49F WCI -10
PIERRE         CLOUDY    12   6  77 SE18      30.45F WCI  -6
WINNER         FLURRIES  17   9  70 SE16      30.45F WCI   2
SIOUX FALLS    CLOUDY    -3  -9  75 N6        30.61F WCI -15
OMAHA          CLOUDY    12   0  58 N10       30.65F WCI  -1
GRAND ISLAND   CLOUDY    17   9  70 E9        30.54F WCI   6
KANSAS CITY    CLOUDY    17   4  56 N10       30.59F WCI   5
WICHITA        CLOUDY    31  16  54 NE13      30.50F WCI  21
OKLAHOMA CITY  CLOUDY    39  27  62 NE14      30.44F WCI  31
LIBERAL        CLOUDY    28  21  74 E9        30.37F WCI  20
HAYS           CLOUDY    25  12  58 E8        30.49S WCI  16
GOODLAND       CLOUDY    28  26  92 S20       30.35F WCI  15
$$




USA.gov is the U.S. government's official web portal to all federal, state and local government web resources and services.